Simultaneous Nadir Overpasses (SNOs) Predictions

Prediction of SNOs between NOAA-19 and TERRA Satellite Orbit:

Table of predicted SNOs for the next 14.0 days since TLE Epoch: 6/8/2019
Index Date (NOAA-19) Time (NOAA-19) Lat,Lon (NOAA-19) SZA (NOAA-19 ) Date (TERRA) Time (TERRA) Lat,Lon (TERRA) SZA (TERRA ) Distance(km) Time Diff (sec)
1 06/09/2019 06:48:01 78.46, 99.89 56.43 06/09/2019 06:48:35 78.43, 99.93 56.41 3.24 34
2 06/09/2019 07:39:03 -78.41, -92.58 123.60 06/09/2019 07:38:03 -78.40, -92.61 123.64 2.21 60
3 06/11/2019 12:21:29 -78.44,-163.25 123.76 06/11/2019 12:22:18 -78.47,-163.30 123.72 3.87 49
4 06/11/2019 13:12:26 78.43, 4.03 56.24 06/11/2019 13:11:45 78.42, 4.08 56.22 1.83 41
5 06/13/2019 17:54:52 78.48, -66.76 56.12 06/13/2019 17:56:00 78.49, -66.63 56.17 3.46 68
6 06/13/2019 18:45:55 -78.43, 100.75 123.90 06/13/2019 18:45:29 -78.42, 100.64 123.94 3.02 26
7 06/16/2019 00:19:17 78.45,-162.64 56.00 06/16/2019 00:19:11 78.43,-162.71 55.97 2.74 6
8 06/18/2019 05:52:47 -78.47, -66.00 124.07 06/18/2019 05:52:54 -78.48, -65.93 124.05 2.01 7
9 06/18/2019 06:43:32 78.07, 103.77 55.79 06/18/2019 06:42:28 78.12, 99.93 55.48 88.19 64
10 06/20/2019 11:26:08 78.48, 30.66 55.90 06/20/2019 11:26:36 78.48, 30.68 55.92 0.72 28




NCC Satellite Simultaneous Nadir Overpasses (SNOs) Prediction Service
